EW4595 Weather Reports


Display with metric or nautical units.
time (UTC)temp
F
wind
direction
speed
MPH
gust
MPH
rain 1hr
in
rain 24hr
in
rain mn
in
humidity
%
barometer
mb
20200703190704 63 359 5.0 17.0 0.00 0.00 0.00 48 1008.3
20200703190604 63 352 10.0 17.0 0.00 0.00 0.00 49 1008.6
20200703190505 63 346 6.0 18.0 0.00 0.00 0.00 49 1008.3
20200703190404 62 342 8.0 18.0 0.00 0.00 0.00 49 1008.4
20200703190204 62 342 6.0 18.0 0.00 0.00 0.00 49 1008.5
20200703190105 62 344 10.0 18.0 0.00 0.00 0.00 49 1008.3
20200703190005 62 344 8.0 18.0 0.00 0.00 0.00 49 1008.1
20200703185904 62 348 8.0 18.0 0.00 0.00 0.00 49 1008.4
20200703185504 62 347 9.0 18.0 0.00 0.00 0.00 48 1008.5
20200703185404 62 350 8.0 18.0 0.00 0.00 0.00 48 1008.3
20200703185004 62 343 7.0 18.0 0.00 0.00 0.00 49 1008.4
20200703184804 62 349 9.0 18.0 0.00 0.00 0.00 49 1008.7
20200703184705 62 347 8.0 18.0 0.00 0.00 0.00 48 1008.7
20200703184305 63 336 7.0 18.0 0.00 0.00 0.00 48 1008.6
20200703184104 63 336 5.0 18.0 0.00 0.00 0.00 48 1008.7
20200703184004 63 338 5.0 18.0 0.00 0.00 0.00 48 1008.6
20200703183804 62 338 5.0 24.0 0.00 0.00 0.00 48 1008.6
20200703183704 62 342 8.0 24.0 0.00 0.00 0.00 48 1008.7
20200703183604 62 344 11.0 24.0 0.00 0.00 0.00 47 1008.8
20200703183504 63 347 7.0 24.0 0.00 0.00 0.00 47 1008.9
20200703183405 63 350 8.0 27.0 0.00 0.00 0.00 47 1008.8
20200703183305 62 348 8.0 27.0 0.00 0.00 0.00 47 1008.8
20200703183205 62 343 12.0 27.0 0.00 0.00 0.00 47 1008.9
20200703183104 63 344 8.0 27.0 0.00 0.00 0.00 47 1008.9
20200703183004 62 345 6.0 27.0 0.00 0.00 0.00 47 1009.0
20200703182805 62 342 13.0 27.0 0.00 0.00 0.00 47 1009.2
20200703182705 62 342 8.0 27.0 0.00 0.00 0.00 47 1009.2
20200703182604 62 342 7.0 27.0 0.00 0.00 0.00 48 1009.1
20200703182404 62 339 11.0 27.0 0.00 0.00 0.00 47 1009.1
20200703182305 62 343 8.0 21.0 0.00 0.00 0.00 47 1009.1
20200703182004 62 347 8.0 22.0 0.00 0.00 0.00 48 1009.2
20200703181704 62 345 11.0 22.0 0.00 0.00 0.00 48 1009.1
20200703181404 62 354 8.0 22.0 0.00 0.00 0.00 49 1008.8
20200703181204 62 355 6.0 22.0 0.00 0.00 0.00 49 1009.1
20200703181104 62 355 9.0 22.0 0.00 0.00 0.00 49 1009.2
20200703180904 62 359 8.0 20.0 0.00 0.00 0.00 48 1009.1
20200703180604 62 360 10.0 20.0 0.00 0.00 0.00 48 1009.4
20200703180404 62 355 7.0 20.0 0.00 0.00 0.00 48 1009.5
20200703180304 62 348 7.0 20.0 0.00 0.00 0.00 48 1009.5
20200703180205 62 348 7.0 17.0 0.00 0.00 0.00 48 1009.4
20200703180105 62 352 5.0 17.0 0.00 0.00 0.00 49 1009.6
20200703175804 62 356 8.0 17.0 0.00 0.00 0.00 49 1009.7
20200703175404 62 352 6.0 17.0 0.00 0.00 0.00 49 1009.8
20200703175204 62 359 7.0 17.0 0.00 0.00 0.00 49 1009.9
20200703174904 62 344 9.0 18.0 0.00 0.00 0.00 50 1009.8
20200703174705 62 335 6.0 18.0 0.00 0.00 0.00 50 1009.8
20200703174605 62 333 7.0 18.0 0.00 0.00 0.00 50 1009.9
20200703174506 62 333 8.0 18.0 0.00 0.00 0.00 50 1010.0
20200703174305 62 335 6.0 18.0 0.00 0.00 0.00 49 1009.9
20200703174205 61 335 11.0 18.0 0.00 0.00 0.00 49 1010.0
20200703174004 61 333 13.0 18.0 0.00 0.00 0.00 49 1010.0
20200703173304 61 340 8.0 21.0 0.00 0.00 0.00 51 1010.2
20200703173104 61 337 9.0 21.0 0.00 0.00 0.00 51 1010.2
20200703173005 61 340 8.0 21.0 0.00 0.00 0.00 52 1010.1
20200703172504 61 333 8.0 17.0 0.00 0.00 0.00 53 1010.1
20200703172404 61 337 10.0 17.0 0.00 0.00 0.00 53 1010.2
20200703172204 61 340 8.0 17.0 0.00 0.00 0.00 52 1010.2
20200703172104 61 344 6.0 17.0 0.00 0.00 0.00 53 1010.4
20200703171904 61 346 8.0 17.0 0.00 0.00 0.00 53 1010.2
20200703171705 61 354 9.0 16.0 0.00 0.00 0.00 54 1010.3
20200703171405 61 351 8.0 17.0 0.00 0.00 0.00 53 1010.3
20200703171305 61 351 7.0 18.0 0.00 0.00 0.00 53 1010.5
20200703171104 61 342 5.0 18.0 0.00 0.00 0.00 52 1010.6
20200703170604 60 338 11.0 22.0 0.00 0.00 0.00 53 1010.8
20200703170505 60 339 8.0 22.0 0.00 0.00 0.00 53 1010.8
20200703170404 60 343 8.0 22.0 0.00 0.00 0.00 53 1010.9
20200703170005 61 355 10.0 22.0 0.00 0.00 0.00 53 1011.0
20200703165905 61 355 6.0 22.0 0.00 0.00 0.00 52 1011.1
20200703165804 61 355 5.0 22.0 0.00 0.00 0.00 53 1011.1
20200703165505 61 356 5.0 21.0 0.00 0.00 0.00 53 1011.1
20200703165404 60 352 10.0 21.0 0.00 0.00 0.00 53 1011.0
20200703165304 60 346 10.0 21.0 0.00 0.00 0.00 53 1010.8
20200703165204 60 341 9.0 24.0 0.00 0.00 0.00 53 1011.4
20200703165104 61 344 4.0 24.0 0.00 0.00 0.00 52 1011.1
20200703165005 60 349 8.0 24.0 0.00 0.00 0.00 53 1011.2
20200703164904 60 352 8.0 24.0 0.00 0.00 0.00 53 1011.4
20200703164804 60 351 8.0 24.0 0.00 0.00 0.00 53 1011.5
20200703164704 60 350 11.0 24.0 0.00 0.00 0.00 53 1011.5
20200703164604 60 350 11.0 24.0 0.00 0.00 0.00 53 1011.6
20200703164504 60 351 9.0 24.0 0.00 0.00 0.00 53 1011.2
20200703164404 60 355 6.0 24.0 0.00 0.00 0.00 53 1011.4
20200703164304 60 358 11.0 24.0 0.00 0.00 0.00 53 1011.6
20200703164104 60 359 8.0 24.0 0.00 0.00 0.00 53 1011.5
20200703164005 60 357 11.0 24.0 0.00 0.00 0.00 54 1011.8
20200703163704 60 352 9.0 20.0 0.00 0.00 0.00 54 1011.6
20200703163604 60 354 9.0 20.0 0.00 0.00 0.00 54 1011.6
20200703163404 60 353 7.0 20.0 0.00 0.00 0.00 54 1011.6
20200703163304 60 354 8.0 20.0 0.00 0.00 0.00 54 1011.7
20200703163204 60 352 8.0 20.0 0.00 0.00 0.00 55 1011.6
20200703163105 60 355 6.0 20.0 0.00 0.00 0.00 55 1011.8
20200703162904 60 353 9.0 20.0 0.00 0.00 0.00 56 1011.7
20200703162804 60 355 9.0 20.0 0.00 0.00 0.00 55 1011.9
20200703162704 59 353 8.0 21.0 0.00 0.00 0.00 56 1011.5
20200703162604 60 345 6.0 21.0 0.00 0.00 0.00 56 1011.5
20200703162204 59 339 8.0 21.0 0.00 0.00 0.00 56 1011.8
20200703162004 59 343 11.0 21.0 0.00 0.00 0.00 56 1011.9
20200703161804 59 344 11.0 21.0 0.00 0.00 0.00 56 1011.9
20200703161704 59 343 10.0 20.0 0.00 0.00 0.00 56 1011.7
20200703161504 60 353 7.0 20.0 0.00 0.00 0.00 56 1011.8
20200703161204 59 348 8.0 21.0 0.00 0.00 0.00 57 1012.1
20200703161004 60 342 4.0 21.0 0.00 0.00 0.00 57 1012.0
20200703160904 59 342 5.0 21.0 0.00 0.00 0.00 57 1012.1
20200703160804 59 338 10.0 21.0 0.00 0.00 0.00 58 1012.2
20200703160704 59 334 11.0 22.0 0.00 0.00 0.00 58 1011.9
20200703160505 58 337 9.0 22.0 0.00 0.00 0.00 58 1012.2
20200703160205 58 337 7.0 22.0 0.00 0.00 0.00 58 1011.9
20200703160105 58 334 12.0 22.0 0.00 0.00 0.00 58 1012.4
20200703160005 58 332 11.0 22.0 0.00 0.00 0.00 58 1012.3
20200703155904 59 334 7.0 22.0 0.00 0.00 0.00 58 1012.3
20200703155804 58 340 10.0 22.0 0.00 0.00 0.00 58 1012.2
20200703155505 58 350 10.0 18.0 0.00 0.00 0.00 58 1012.3
20200703155304 59 352 8.0 18.0 0.00 0.00 0.00 58 1012.6
20200703155104 58 352 11.0 18.0 0.00 0.00 0.00 58 1012.5
20200703154804 59 353 6.0 17.0 0.00 0.00 0.00 59 1012.8
20200703154704 58 354 5.0 17.0 0.00 0.00 0.00 59 1012.8
20200703154505 58 349 8.0 17.0 0.00 0.00 0.00 59 1012.6
20200703154404 58 350 8.0 17.0 0.00 0.00 0.00 59 1012.5
20200703154304 58 347 9.0 16.0 0.00 0.00 0.00 59 1012.8
20200703154204 58 350 4.0 14.0 0.00 0.00 0.00 59 1012.9
20200703154104 58 350 7.0 14.0 0.00 0.00 0.00 60 1012.8
20200703154004 58 352 7.0 14.0 0.00 0.00 0.00 60 1012.8
20200703153804 58 347 6.0 17.0 0.00 0.00 0.00 60 1012.7
20200703153604 58 351 6.0 17.0 0.00 0.00 0.00 60 1012.8
20200703153504 58 353 4.0 17.0 0.00 0.00 0.00 60 1012.8
20200703153404 57 350 7.0 17.0 0.00 0.00 0.00 62 1012.9
20200703153304 57 352 8.0 17.0 0.00 0.00 0.00 61 1013.0
20200703153204 57 350 10.0 17.0 0.00 0.00 0.00 61 1012.8
20200703153004 57 354 6.0 17.0 0.00 0.00 0.00 61 1013.0
20200703152804 57 356 10.0 17.0 0.00 0.00 0.00 61 1013.1
20200703152604 57 354 5.0 17.0 0.00 0.00 0.00 61 1013.4
20200703152504 57 356 8.0 17.0 0.00 0.00 0.00 62 1013.4
20200703152204 57 357 9.0 16.0 0.00 0.00 0.00 62 1013.5
20200703151904 58 350 4.0 14.0 0.00 0.00 0.00 62 1013.6
20200703151704 57 346 4.0 15.0 0.00 0.00 0.00 62 1013.6
20200703151604 57 346 4.0 15.0 0.00 0.00 0.00 62 1013.5
20200703151404 57 341 7.0 15.0 0.00 0.00 0.00 62 1013.4
20200703151204 57 340 8.0 15.0 0.00 0.00 0.00 62 1013.6
20200703151104 57 340 8.0 15.0 0.00 0.00 0.00 62 1013.6
20200703151004 57 341 5.0 15.0 0.00 0.00 0.00 63 1013.7
20200703150904 56 340 8.0 15.0 0.00 0.00 0.00 63 1013.7
20200703150804 56 337 10.0 15.0 0.00 0.00 0.00 63 1013.7
20200703150404 57 338 4.0 16.0 0.00 0.00 0.00 62 1013.9
20200703150204 57 343 4.0 16.0 0.00 0.00 0.00 61 1014.0
20200703145904 57 344 3.0 16.0 0.00 0.00 0.00 62 1013.9
20200703145805 56 346 6.0 16.0 0.00 0.00 0.00 62 1014.0
20200703145705 56 343 9.0 16.0 0.00 0.00 0.00 62 1014.1
20200703145504 56 346 7.0 13.0 0.00 0.00 0.00 62 1013.8
20200703145304 56 351 4.0 13.0 0.00 0.00 0.00 62 1014.2
20200703145205 56 349 5.0 13.0 0.00 0.00 0.00 64 1014.3
20200703145104 56 351 8.0 13.0 0.00 0.00 0.00 63 1014.4
20200703145005 56 352 3.0 13.0 0.00 0.00 0.00 63 1014.2
20200703144904 56 349 5.0 13.0 0.00 0.00 0.00 64 1014.2
20200703144705 56 354 7.0 13.0 0.00 0.00 0.00 64 1014.2
20200703144604 56 354 5.0 15.0 0.00 0.00 0.00 64 1014.4
20200703144505 56 353 4.0 15.0 0.00 0.00 0.00 66 1014.2
20200703144404 56 353 4.0 15.0 0.00 0.00 0.00 66 1014.2
20200703144304 55 355 4.0 15.0 0.00 0.00 0.00 66 1014.3
20200703144104 55 357 3.0 15.0 0.00 0.00 0.00 67 1014.3
20200703144004 55 358 4.0 15.0 0.00 0.00 0.00 67 1014.3
20200703143704 55 356 7.0 15.0 0.00 0.00 0.00 67 1014.5
20200703143604 55 357 8.0 15.0 0.00 0.00 0.00 67 1014.3
20200703143504 55 359 6.0 15.0 0.00 0.00 0.00 67 1014.4
20200703143404 55 358 8.0 15.0 0.00 0.00 0.00 66 1014.7
20200703143004 54 354 4.0 13.0 0.00 0.00 0.00 67 1014.7
20200703142804 54 352 6.0 13.0 0.00 0.00 0.00 68 1014.5
20200703142704 54 351 7.0 13.0 0.00 0.00 0.00 68 1014.8
20200703142204 55 349 2.0 13.0 0.00 0.00 0.00 68 1014.7
20200703142104 54 348 4.0 13.0 0.00 0.00 0.00 68 1014.6
20200703141904 54 346 4.0 13.0 0.00 0.00 0.00 68 1014.8
20200703141804 54 350 5.0 13.0 0.00 0.00 0.00 68 1014.6
20200703141704 54 351 6.0 13.0 0.00 0.00 0.00 68 1014.6
20200703141604 54 349 6.0 13.0 0.00 0.00 0.00 67 1014.5
20200703141504 54 347 5.0 13.0 0.00 0.00 0.00 67 1014.7
20200703141204 54 350 4.0 13.0 0.00 0.00 0.00 68 1014.8
20200703140904 54 346 2.0 13.0 0.00 0.00 0.00 69 1014.9
20200703140804 53 344 4.0 13.0 0.00 0.00 0.00 69 1015.0
20200703140704 53 343 5.0 13.0 0.00 0.00 0.00 70 1014.9
20200703140504 53 350 4.0 9.0 0.00 0.00 0.00 69 1015.1
20200703140404 53 354 4.0 11.0 0.00 0.00 0.00 70 1015.0
20200703140304 53 354 4.0 13.0 0.00 0.00 0.00 70 1014.8
20200703140204 53 352 5.0 13.0 0.00 0.00 0.00 70 1014.9
20200703140104 53 352 4.0 13.0 0.00 0.00 0.00 70 1014.7
20200703140004 53 348 2.0 13.0 0.00 0.00 0.00 70 1014.7
20200703135904 53 347 2.0 13.0 0.00 0.00 0.00 70 1014.9
20200703135604 53 350 4.0 13.0 0.00 0.00 0.00 72 1014.9
20200703135504 53 350 2.0 13.0 0.00 0.00 0.00 72 1014.7
20200703135404 52 348 4.0 13.0 0.00 0.00 0.00 72 1014.7
20200703135303 52 346 8.0 13.0 0.00 0.00 0.00 73 1014.8
20200703135104 52 348 8.0 11.0 0.00 0.00 0.00 72 1014.8
20200703135005 52 357 6.0 11.0 0.00 0.00 0.00 71 1014.8
20200703134904 52 1 4.0 11.0 0.00 0.00 0.00 72 1014.6
20200703134803 52 1 3.0 11.0 0.00 0.00 0.00 72 1014.7
20200703134604 52 3 4.0 11.0 0.00 0.00 0.00 73 1014.8
20200703134504 52 5 4.0 11.0 0.00 0.00 0.00 73 1014.7
20200703134404 52 10 6.0 11.0 0.00 0.00 0.00 73 1014.7
20200703134104 52 11 3.0 7.0 0.00 0.00 0.00 75 1014.7
20200703133904 51 9 2.0 4.0 0.00 0.00 0.00 76 1014.8
20200703133804 51 12 2.0 4.0 0.00 0.00 0.00 77 1014.8
20200703133704 50 11 3.0 4.0 0.00 0.00 0.00 77 1014.8
20200703133403 50 16 2.0 6.0 0.00 0.00 0.00 78 1015.1
20200703133304 49 16 3.0 6.0 0.00 0.00 0.00 78 1014.8
20200703133204 49 20 2.0 6.0 0.00 0.00 0.00 78 1015.0
20200703133104 49 18 2.0 6.0 0.00 0.00 0.00 78 1014.9
20200703133005 49 18 1.0 6.0 0.00 0.00 0.00 79 1014.8
20200703132904 49 17 1.0 6.0 0.00 0.00 0.00 79 1015.1
20200703132804 49 17 1.0 7.0 0.00 0.00 0.00 80 1014.9
20200703132504 48 6 3.0 7.0 0.00 0.00 0.00 81 1014.9
20200703132104 47 8 3.0 7.0 0.00 0.00 0.00 81 1015.0
20200703132004 47 5 2.0 7.0 0.00 0.00 0.00 82 1015.1
20200703131904 47 5 2.0 7.0 0.00 0.00 0.00 82 1015.2
20200703131704 47 5 2.0 7.0 0.00 0.00 0.00 82 1014.9
20200703131604 47 10 2.0 7.0 0.00 0.00 0.00 82 1015.1
20200703131303 47 7 2.0 7.0 0.00 0.00 0.00 83 1015.3
20200703131004 46 13 2.0 6.0 0.00 0.00 0.00 82 1015.3
20200703130704 46 17 2.0 6.0 0.00 0.00 0.00 82 1015.2
20200703130605 46 15 3.0 6.0 0.00 0.00 0.00 82 1015.2
20200703130505 46 20 4.0 6.0 0.00 0.00 0.00 82 1015.2
20200703130104 46 28 3.0 6.0 0.00 0.00 0.00 83 1015.2
20200703130004 46 33 2.0 4.0 0.00 0.00 0.00 82 1015.2
20200703125804 47 25 2.0 4.0 0.00 0.00 0.00 81 1015.3
20200703125704 47 27 2.0 4.0 0.00 0.00 0.00 81 1015.4
20200703125604 47 34 0.0 6.0 0.00 0.00 0.00 82 1015.2
20200703125403 46 30 2.0 6.0 0.00 0.00 0.00 82 1015.3
20200703125204 46 36 1.0 6.0 0.00 0.00 0.00 84 1015.3
20200703125104 46 28 1.0 8.0 0.00 0.00 0.00 84 1015.2
20200703125004 45 20 3.0 8.0 0.00 0.00 0.00 85 1015.2
20200703124804 46 22 1.0 8.0 0.00 0.00 0.00 84 1015.3
20200703124504 45 17 4.0 8.0 0.00 0.00 0.00 84 1015.3
20200703124404 45 13 2.0 8.0 0.00 0.00 0.00 84 1015.1
20200703124204 45 8 4.0 8.0 0.00 0.00 0.00 85 1015.3
20200703124104 45 12 4.0 7.0 0.00 0.00 0.00 84 1015.3
20200703124005 46 16 0.0 7.0 0.00 0.00 0.00 85 1015.3
20200703123803 45 19 2.0 7.0 0.00 0.00 0.00 85 1015.2
20200703123204 44 12 3.0 7.0 0.00 0.00 0.00 86 1014.9
20200703123104 44 15 2.0 7.0 0.00 0.00 0.00 87 1015.1
20200703123004 44 16 3.0 7.0 0.00 0.00 0.00 87 1015.0
20200703122904 44 16 4.0 7.0 0.00 0.00 0.00 87 1015.0
20200703122704 44 17 5.0 7.0 0.00 0.00 0.00 87 1014.9
20200703122604 44 23 4.0 7.0 0.00 0.00 0.00 87 1014.8
20200703122504 44 30 4.0 7.0 0.00 0.00 0.00 87 1014.6
20200703122204 44 36 2.0 4.0 0.00 0.00 0.00 87 1014.8
20200703122104 44 29 2.0 4.0 0.00 0.00 0.00 87 1015.1
20200703122004 44 26 1.0 4.0 0.00 0.00 0.00 87 1015.0
20200703121505 44 15 2.0 7.0 0.00 0.00 0.00 88 1014.8
20200703121203 44 17 2.0 7.0 0.00 0.00 0.00 88 1015.1
20200703121004 44 20 4.0 7.0 0.00 0.00 0.00 88 1015.1
20200703120904 44 21 4.0 7.0 0.00 0.00 0.00 88 1015.2
20200703120804 44 21 2.0 4.0 0.00 0.00 0.00 88 1015.0
20200703120604 44 21 2.0 4.0 0.00 0.00 0.00 88 1015.4
20200703120304 44 21 2.0 4.0 0.00 0.00 0.00 88 1015.4
20200703120203 44 21 2.0 4.0 0.00 0.00 0.00 88 1015.4
20200703120104 44 22 1.0 4.0 0.00 0.00 0.00 89 1015.4
20200703115904 44 24 2.0 4.0 0.00 0.00 0.00 89 1015.4
20200703115703 44 33 1.0 4.0 0.00 0.00 0.00 89 1015.3
20200703115504 44 31 1.0 4.0 0.00 0.00 0.00 89 1015.2
20200703115404 44 31 2.0 4.0 0.00 0.00 0.00 89 1015.4
20200703115305 44 31 1.0 4.0 0.00 0.00 0.00 89 1015.6
20200703115103 44 29 2.0 4.0 0.00 0.00 0.00 90 1015.5
20200703115004 44 28 2.0 4.0 0.00 0.00 0.00 90 1015.5
20200703114904 44 29 2.0 4.0 0.00 0.00 0.00 90 1015.3
20200703114804 44 24 3.0 4.0 0.00 0.00 0.00 90 1015.4
20200703114404 43 23 1.0 4.0 0.00 0.00 0.00 90 1015.3
20200703114204 43 21 3.0 4.0 0.00 0.00 0.00 91 1015.5
20200703114004 43 22 1.0 4.0 0.00 0.00 0.00 91 1015.5
20200703113704 43 22 2.0 4.0 0.00 0.00 0.00 92 1015.4
20200703113603 42 23 2.0 4.0 0.00 0.00 0.00 92 1015.5
20200703113506 42 26 2.0 4.0 0.00 0.00 0.00 92 1015.4
20200703113304 42 35 2.0 4.0 0.00 0.00 0.00 92 1015.6
20200703112905 42 54 1.0 4.0 0.00 0.00 0.00 93 1015.3
20200703112804 42 57 1.0 4.0 0.00 0.00 0.00 93 1015.4
20200703112704 42 59 2.0 4.0 0.00 0.00 0.00 93 1015.3
20200703112604 42 61 1.0 4.0 0.00 0.00 0.00 93 1015.6
20200703112505 42 62 2.0 4.0 0.00 0.00 0.00 93 1015.5
20200703112404 42 63 2.0 4.0 0.00 0.00 0.00 93 1015.6
20200703112024 42 60 2.0 4.0 0.00 0.00 0.00 92 1015.7
20200703111805 43 59 2.0 4.0 0.00 0.00 0.00 92 1015.7
20200703111404 43 62 1.0 4.0 0.00 0.00 0.00 92 1015.4
20200703110804 43 70 1.0 4.0 0.00 0.00 0.00 92 1015.3
20200703110704 43 70 2.0 4.0 0.00 0.00 0.00 92 1015.1
20200703110503 43 68 1.0 4.0 0.00 0.00 0.00 91 1015.2
20200703110304 44 64 1.0 4.0 0.00 0.00 0.00 91 1015.2
20200703105904 44 24 1.0 6.0 0.00 0.00 0.00 89 1015.1
20200703105004 46 352 3.0 6.0 0.00 0.00 0.00 81 1014.9
20200703104704 46 349 1.0 11.0 0.00 0.00 0.00 81 1015.0
20200703104604 46 346 2.0 11.0 0.00 0.00 0.00 81 1014.8
20200703104504 46 345 2.0 11.0 0.00 0.00 0.00 81 1014.8
20200703104304 46 346 2.0 11.0 0.00 0.00 0.00 81 1014.6
20200703104203 46 348 1.0 11.0 0.00 0.00 0.00 81 1014.6
20200703103803 46 353 5.0 11.0 0.00 0.00 0.00 80 1014.4
20200703103704 46 353 6.0 11.0 0.00 0.00 0.00 80 1014.7
20200703103504 46 356 3.0 11.0 0.00 0.00 0.00 81 1014.5
20200703103304 46 353 4.0 11.0 0.00 0.00 0.00 80 1014.6
20200703103104 46 349 5.0 11.0 0.00 0.00 0.00 80 1014.6
20200703102606 46 341 4.0 11.0 0.00 0.00 0.00 80 1015.1
20200703102505 46 339 5.0 11.0 0.00 0.00 0.00 80 1015.1
20200703102404 46 339 5.0 11.0 0.00 0.00 0.00 80 1015.2
20200703102204 46 341 4.0 11.0 0.00 0.00 0.00 80 1015.1
20200703102104 46 340 7.0 11.0 0.00 0.00 0.00 80 1015.3
20200703102005 46 341 4.0 11.0 0.00 0.00 0.00 80 1015.3
20200703101704 46 344 6.0 18.0 0.00 0.00 0.00 80 1015.0
20200703101405 46 347 4.0 18.0 0.00 0.00 0.00 80 1015.0
20200703101304 46 347 4.0 18.0 0.00 0.00 0.00 80 1015.3
20200703101205 46 349 4.0 18.0 0.00 0.00 0.00 80 1015.1
20200703101104 46 347 4.0 18.0 0.00 0.00 0.00 80 1015.3
20200703101004 46 348 4.0 18.0 0.00 0.00 0.00 80 1015.2
20200703100804 46 347 9.0 18.0 0.00 0.00 0.00 80 1015.1
20200703100604 46 347 4.0 11.0 0.00 0.00 0.00 80 1015.3
20200703100304 46 348 3.0 11.0 0.00 0.00 0.00 81 1015.3
20200703095904 46 349 6.0 11.0 0.00 0.00 0.00 80 1015.3
20200703095805 46 350 4.0 11.0 0.00 0.00 0.00 80 1015.4
20200703095705 46 348 5.0 11.0 0.00 0.00 0.00 80 1015.4
20200703095604 46 348 4.0 11.0 0.00 0.00 0.00 80 1015.2
20200703095504 46 348 6.0 11.0 0.00 0.00 0.00 80 1015.3
20200703095204 46 344 3.0 11.0 0.00 0.00 0.00 80 1015.4
20200703095105 46 346 3.0 11.0 0.00 0.00 0.00 80 1015.5
20200703094804 46 344 3.0 11.0 0.00 0.00 0.00 80 1015.4
20200703094705 46 346 4.0 11.0 0.00 0.00 0.00 80 1015.4
20200703094304 45 346 4.0 11.0 0.00 0.00 0.00 80 1015.4
20200703094205 45 348 3.0 13.0 0.00 0.00 0.00 81 1015.5
20200703093905 45 348 6.0 13.0 0.00 0.00 0.00 80 1015.4
20200703093304 45 347 4.0 13.0 0.00 0.00 0.00 81 1015.5
20200703093004 45 344 3.0 9.0 0.00 0.00 0.00 81 1015.4
20200703092804 45 341 6.0 9.0 0.00 0.00 0.00 81 1015.4
20200703092704 45 341 3.0 9.0 0.00 0.00 0.00 81 1015.4
20200703092605 45 342 6.0 9.0 0.00 0.00 0.00 82 1015.6
20200703092305 44 345 2.0 8.0 0.00 0.00 0.00 82 1015.4
20200703092104 44 346 2.0 8.0 0.00 0.00 0.00 82 1015.3
20200703091905 44 349 2.0 8.0 0.00 0.00 0.00 82 1015.3
20200703091804 44 352 4.0 8.0 0.00 0.00 0.00 82 1015.2
20200703091604 44 350 4.0 8.0 0.00 0.00 0.00 82 1015.3
20200703091404 44 348 3.0 8.0 0.00 0.00 0.00 83 1015.4
20200703091304 44 347 3.0 8.0 0.00 0.00 0.00 83 1015.5
20200703091204 44 346 5.0 8.0 0.00 0.00 0.00 83 1015.3
20200703090904 44 346 3.0 6.0 0.00 0.00 0.00 83 1015.5
20200703090805 44 345 2.0 7.0 0.00 0.00 0.00 83 1015.4
20200703090504 43 344 3.0 7.0 0.00 0.00 0.00 84 1015.5
20200703090405 43 346 3.0 7.0 0.00 0.00 0.00 84 1015.5
20200703090204 43 346 2.0 7.0 0.00 0.00 0.00 84 1015.4
20200703090104 43 346 3.0 8.0 0.00 0.00 0.00 84 1015.6
20200703085905 43 342 3.0 8.0 0.00 0.00 0.00 84 1015.4
20200703085805 43 341 2.0 8.0 0.00 0.00 0.00 84 1015.6
20200703085704 43 339 3.0 8.0 0.00 0.00 0.00 84 1015.5
20200703085604 43 339 4.0 8.0 0.00 0.00 0.00 84 1015.5
20200703085504 43 338 3.0 8.0 0.00 0.00 0.00 84 1015.5
20200703085404 43 336 2.0 8.0 0.00 0.00 0.00 84 1015.3
20200703085306 43 337 2.0 8.0 0.00 0.00 0.00 84 1015.5
20200703085205 43 337 3.0 8.0 0.00 0.00 0.00 84 1015.6
20200703084805 43 336 3.0 6.0 0.00 0.00 0.00 84 1015.7
20200703084604 42 336 2.0 6.0 0.00 0.00 0.00 85 1015.7
20200703084504 42 337 2.0 6.0 0.00 0.00 0.00 85 1015.8
20200703084404 42 337 2.0 6.0 0.00 0.00 0.00 85 1015.7
20200703084304 42 336 2.0 6.0 0.00 0.00 0.00 85 1015.8
20200703084204 42 335 2.0 6.0 0.00 0.00 0.00 85 1015.9
20200703084004 42 335 3.0 8.0 0.00 0.00 0.00 85 1015.9
20200703083704 42 336 2.0 8.0 0.00 0.00 0.00 85 1016.0
20200703083304 42 332 3.0 8.0 0.00 0.00 0.00 85 1015.9
20200703083204 42 332 3.0 8.0 0.00 0.00 0.00 85 1015.7
20200703083004 42 330 2.0 7.0 0.00 0.00 0.00 85 1015.9
20200703082904 42 330 3.0 7.0 0.00 0.00 0.00 85 1015.8
20200703082804 42 331 1.0 7.0 0.00 0.00 0.00 85 1016.0
20200703082705 42 330 2.0 7.0 0.00 0.00 0.00 85 1015.9
20200703082605 42 331 2.0 7.0 0.00 0.00 0.00 85 1016.1
20200703082504 42 332 2.0 7.0 0.00 0.00 0.00 85 1016.0
20200703082305 42 333 2.0 8.0 0.00 0.00 0.00 85 1015.9
20200703082104 42 335 2.0 8.0 0.00 0.00 0.00 85 1015.9
20200703082004 42 336 2.0 8.0 0.00 0.00 0.00 85 1015.9
20200703081904 42 336 3.0 8.0 0.00 0.00 0.00 85 1016.1
20200703081804 42 336 2.0 8.0 0.00 0.00 0.00 85 1015.9
20200703081704 42 337 3.0 8.0 0.00 0.00 0.00 85 1016.2
20200703081504 42 338 2.0 8.0 0.00 0.00 0.00 85 1015.8
20200703081404 42 338 4.0 8.0 0.00 0.00 0.00 86 1016.0
20200703081104 42 339 3.0 8.0 0.00 0.00 0.00 86 1015.8
20200703081004 42 338 4.0 8.0 0.00 0.00 0.00 86 1016.1
20200703080904 42 340 2.0 7.0 0.00 0.00 0.00 86 1015.9
20200703080804 42 340 4.0 7.0 0.00 0.00 0.00 86 1015.9
20200703080605 42 340 4.0 7.0 0.00 0.00 0.00 86 1016.1
20200703080304 41 338 2.0 4.0 0.00 0.00 0.00 86 1015.8
20200703080105 41 335 2.0 4.0 0.00 0.00 0.00 86 1016.0
20200703080005 41 336 2.0 6.0 0.00 0.00 0.00 86 1015.9
20200703075904 41 334 2.0 6.0 0.00 0.00 0.00 87 1016.1
20200703075805 41 334 2.0 6.0 0.00 0.00 0.00 87 1015.9
20200703075704 41 334 2.0 6.0 0.00 0.00 0.00 87 1016.1
20200703075604 41 334 2.0 6.0 0.00 0.00 0.00 86 1016.0
20200703075405 41 332 3.0 6.0 0.00 0.00 0.00 87 1016.2
20200703075306 41 333 3.0 6.0 0.00 0.00 0.00 87 1016.2
20200703075204 41 336 2.0 6.0 0.00 0.00 0.00 87 1016.3
20200703075104 41 336 0.0 6.0 0.00 0.00 0.00 87 1016.3
20200703075004 41 333 3.0 6.0 0.00 0.00 0.00 87 1016.3
20200703074804 41 330 1.0 4.0 0.00 0.00 0.00 87 1016.4
20200703074405 41 318 1.0 4.0 0.00 0.00 0.00 87 1016.4
20200703074304 41 317 1.0 4.0 0.00 0.00 0.00 87 1016.5
20200703074104 41 319 1.0 4.0 0.00 0.00 0.00 87 1016.5
20200703073905 41 319 1.0 4.0 0.00 0.00 0.00 87 1016.5
20200703073604 41 316 1.0 4.0 0.00 0.00 0.00 87 1016.6
20200703073505 41 316 2.0 4.0 0.00 0.00 0.00 87 1016.8
20200703073405 41 317 1.0 4.0 0.00 0.00 0.00 87 1016.5
20200703073204 41 315 2.0 4.0 0.00 0.00 0.00 87 1016.6
20200703072704 41 314 2.0 6.0 0.00 0.00 0.00 87 1016.6
20200703072506 41 320 2.0 6.0 0.00 0.00 0.00 87 1016.6
20200703072404 41 321 2.0 6.0 0.00 0.00 0.00 87 1016.7
20200703072306 41 323 2.0 6.0 0.00 0.00 0.00 87 1016.8
20200703072205 41 321 2.0 6.0 0.00 0.00 0.00 87 1016.7
20200703072105 41 321 2.0 6.0 0.00 0.00 0.00 87 1016.7
20200703072005 41 321 2.0 6.0 0.00 0.00 0.00 87 1016.6
20200703071505 41 309 2.0 6.0 0.00 0.00 0.00 87 1016.5
20200703071304 41 308 3.0 6.0 0.00 0.00 0.00 87 1016.6
20200703071104 41 314 2.0 6.0 0.00 0.00 0.00 87 1016.7
20200703071004 42 314 2.0 6.0 0.00 0.00 0.00 87 1016.7
20200703070706 42 321 3.0 6.0 0.00 0.00 0.00 87 1016.7
20200703070504 42 327 2.0 6.0 0.00 0.00 0.00 87 1016.6
20200703070305 42 329 1.0 6.0 0.00 0.00 0.00 87 1016.7
20200703070204 42 327 2.0 6.0 0.00 0.00 0.00 87 1016.6
20200703070104 42 326 2.0 6.0 0.00 0.00 0.00 88 1016.8
20200703065904 42 325 2.0 6.0 0.00 0.00 0.00 88 1016.7
20200703065804 42 324 2.0 6.0 0.00 0.00 0.00 88 1016.9
20200703065604 42 321 2.0 6.0 0.00 0.00 0.00 88 1016.7
20200703065404 42 323 4.0 8.0 0.00 0.00 0.00 88 1016.6
20200703065304 42 324 3.0 8.0 0.00 0.00 0.00 88 1016.7
20200703065204 42 323 2.0 8.0 0.00 0.00 0.00 88 1016.7
20200703065004 42 322 2.0 8.0 0.00 0.00 0.00 88 1016.8
20200703064904 42 325 2.0 8.0 0.00 0.00 0.00 88 1016.7
20200703064604 42 328 3.0 8.0 0.00 0.00 0.00 88 1016.6
20200703064504 42 322 2.0 7.0 0.00 0.00 0.00 88 1016.6
20200703064404 42 318 2.0 7.0 0.00 0.00 0.00 88 1017.0
20200703064304 42 314 4.0 8.0 0.00 0.00 0.00 88 1016.7
20200703064204 42 317 2.0 8.0 0.00 0.00 0.00 89 1016.9
20200703064104 42 320 4.0 8.0 0.00 0.00 0.00 89 1016.9
20200703064004 42 319 4.0 8.0 0.00 0.00 0.00 89 1016.8
20200703063904 42 320 2.0 8.0 0.00 0.00 0.00 89 1016.8
20200703063605 42 312 2.0 8.0 0.00 0.00 0.00 89 1016.8
20200703063504 42 317 3.0 8.0 0.00 0.00 0.00 89 1016.9
20200703063304 42 323 5.0 8.0 0.00 0.00 0.00 89 1016.9
20200703063204 42 323 2.0 7.0 0.00 0.00 0.00 89 1016.9
20200703063004 42 318 2.0 7.0 0.00 0.00 0.00 89 1017.1
20200703062704 42 315 3.0 7.0 0.00 0.00 0.00 89 1017.1
20200703062604 42 320 2.0 6.0 0.00 0.00 0.00 89 1016.8
20200703062504 42 320 2.0 6.0 0.00 0.00 0.00 89 1017.1
20200703062304 42 318 2.0 6.0 0.00 0.00 0.00 89 1017.1
20200703062103 43 316 2.0 6.0 0.00 0.00 0.00 89 1017.1
20200703061904 43 317 4.0 6.0 0.00 0.00 0.00 89 1017.0
20200703061704 43 312 2.0 4.0 0.00 0.00 0.00 89 1017.2
20200703061604 43 312 2.0 4.0 0.00 0.00 0.00 89 1017.0
20200703061506 43 310 2.0 4.0 0.00 0.00 0.00 89 1017.3
20200703061404 43 309 2.0 4.0 0.00 0.00 0.00 89 1016.8
20200703061205 43 308 3.0 6.0 0.00 0.00 0.00 89 1017.1
20200703061004 43 306 2.0 7.0 0.00 0.00 0.00 89 1017.0
20200703060904 43 307 2.0 7.0 0.00 0.00 0.00 89 1017.0
20200703060804 43 314 1.0 7.0 0.00 0.00 0.00 88 1017.0
20200703060704 43 315 2.0 7.0 0.00 0.00 0.00 88 1017.0
20200703060604 43 311 2.0 7.0 0.00 0.00 0.00 88 1017.0
20200703060304 43 313 2.0 7.0 0.00 0.00 0.00 88 1017.0
20200703060204 43 314 2.0 7.0 0.00 0.00 0.00 87 1017.1
20200703055904 43 314 2.0 6.0 0.00 0.00 0.00 87 1016.9
20200703055704 43 311 2.0 6.0 0.00 0.00 0.00 86 1016.9
20200703055604 43 314 2.0 6.0 0.00 0.00 0.00 86 1016.9
20200703055504 43 315 2.0 6.0 0.00 0.00 0.00 86 1016.9
20200703055404 44 316 3.0 6.0 0.00 0.00 0.00 86 1016.9
20200703055104 44 314 3.0 6.0 0.00 0.00 0.00 86 1016.9
20200703055004 44 314 2.0 4.0 0.00 0.00 0.00 85 1016.7
20200703054704 44 316 2.0 4.0 0.00 0.00 0.00 85 1017.1
20200703054604 44 315 2.0 4.0 0.00 0.00 0.00 85 1017.1
20200703054506 44 314 2.0 4.0 0.00 0.00 0.00 85 1017.2
20200703054204 44 307 2.0 4.0 0.00 0.00 0.00 85 1017.1
20200703054104 44 307 2.0 4.0 0.00 0.00 0.00 85 1017.1
20200703054004 44 307 2.0 4.0 0.00 0.00 0.00 85 1017.0
20200703053904 44 306 1.0 4.0 0.00 0.00 0.00 85 1017.3
20200703053804 44 303 1.0 4.0 0.00 0.00 0.00 85 1017.3
20200703053704 44 299 1.0 4.0 0.00 0.00 0.00 85 1017.1
20200703053604 44 298 2.0 4.0 0.00 0.00 0.00 85 1017.1
20200703053504 45 295 2.0 4.0 0.00 0.00 0.00 85 1017.2
20200703053404 44 291 2.0 4.0 0.00 0.00 0.00 85 1017.3
20200703053204 44 285 1.0 2.0 0.00 0.00 0.00 85 1017.3
20200703053004 45 285 1.0 4.0 0.00 0.00 0.00 85 1017.3
20200703052904 45 287 1.0 4.0 0.00 0.00 0.00 85 1017.4
20200703052804 45 291 1.0 4.0 0.00 0.00 0.00 85 1017.3
20200703052704 45 298 1.0 4.0 0.00 0.00 0.00 85 1017.4
20200703052604 45 304 2.0 4.0 0.00 0.00 0.00 85 1017.2
20200703052104 46 313 1.0 4.0 0.00 0.00 0.00 84 1017.4
20200703052004 46 315 2.0 4.0 0.00 0.00 0.00 84 1017.4
20200703051704 46 313 2.0 4.0 0.00 0.00 0.00 83 1017.5
20200703051504 46 318 2.0 4.0 0.00 0.00 0.00 83 1017.3
20200703051104 46 320 2.0 4.0 0.00 0.00 0.00 83 1017.2
20200703051004 46 317 1.0 4.0 0.00 0.00 0.00 83 1017.3
20200703050804 46 321 2.0 4.0 0.00 0.00 0.00 83 1017.1
20200703050704 46 322 1.0 4.0 0.00 0.00 0.00 83 1017.2
20200703050604 46 320 2.0 4.0 0.00 0.00 0.00 82 1017.4
20200703050304 47 314 1.0 4.0 0.00 0.00 0.00 82 1017.2
20200703050204 47 314 2.0 4.0 0.00 0.00 0.00 82 1017.6
20200703045904 47 318 2.0 4.0 0.00 0.00 0.00 82 1017.4
20200703045504 47 323 2.0 4.0 0.00 0.00 0.00 81 1017.6
20200703045304 47 324 1.0 4.0 0.00 0.00 0.00 81 1017.5
20200703045204 47 322 1.0 4.0 0.00 0.00 0.00 81 1017.5
20200703045104 47 321 2.0 4.0 0.00 0.00 0.00 81 1017.6
20200703044904 47 319 2.0 4.0 0.00 0.00 0.00 81 1017.6
20200703044804 47 319 1.0 4.0 0.00 0.00 0.00 81 1017.5
20200703044304 47 310 1.0 4.0 0.00 0.00 0.00 81 1017.7
20200703044103 47 311 2.0 4.0 0.00 0.00 0.00 81 1017.5
20200703043804 47 313 1.0 6.0 0.00 0.00 0.00 81 1017.5
20200703043704 47 316 1.0 6.0 0.00 0.00 0.00 81 1017.4
20200703043605 47 320 1.0 6.0 0.00 0.00 0.00 81 1017.5
20200703043405 47 322 0.0 6.0 0.00 0.00 0.00 81 1017.5
20200703043205 48 327 1.0 6.0 0.00 0.00 0.00 81 1017.6
20200703043004 48 339 4.0 6.0 0.00 0.00 0.00 80 1017.6
20200703042804 48 345 2.0 4.0 0.00 0.00 0.00 80 1017.3
20200703042504 48 346 2.0 4.0 0.00 0.00 0.00 80 1017.5
20200703042404 48 346 2.0 4.0 0.00 0.00 0.00 80 1017.5
20200703042304 48 344 1.0 4.0 0.00 0.00 0.00 80 1017.5
20200703042104 48 342 2.0 4.0 0.00 0.00 0.00 80 1017.6
20200703041904 48 341 2.0 4.0 0.00 0.00 0.00 80 1017.5
20200703041704 48 340 0.0 4.0 0.00 0.00 0.00 79 1017.9
20200703041604 48 340 0.0 4.0 0.00 0.00 0.00 79 1017.6
20200703041504 48 342 1.0 4.0 0.00 0.00 0.00 79 1017.9
20200703041404 48 344 4.0 4.0 0.00 0.00 0.00 79 1017.7
20200703041204 48 341 1.0 6.0 0.00 0.00 0.00 79 1017.8
20200703041104 48 339 2.0 6.0 0.00 0.00 0.00 79 1017.7
20200703041004 48 339 2.0 6.0 0.00 0.00 0.00 79 1017.9
20200703040804 48 341 2.0 6.0 0.00 0.00 0.00 79 1017.7
20200703040505 49 340 2.0 6.0 0.00 0.00 0.00 78 1017.9
20200703040004 49 346 3.0 9.0 0.00 0.00 0.00 78 1017.8
20200703035904 49 348 3.0 9.0 0.00 0.00 0.00 78 1017.7
20200703035804 49 345 2.0 9.0 0.00 0.00 0.00 78 1017.8
20200703035405 49 351 2.0 8.0 0.00 0.00 0.00 78 1017.8
20200703035304 49 353 2.0 8.0 0.00 0.00 0.00 78 1017.7
20200703035103 49 352 3.0 9.0 0.00 0.00 0.00 77 1017.8
20200703034604 49 359 4.0 9.0 0.00 0.00 0.00 78 1017.8
20200703034504 49 1 4.0 9.0 0.00 0.00 0.00 78 1017.7
20200703034404 49 4 5.0 9.0 0.00 0.00 0.00 78 1017.7
20200703034304 49 7 2.0 9.0 0.00 0.00 0.00 78 1017.8
20200703034204 48 10 4.0 9.0 0.00 0.00 0.00 79 1017.5
20200703033804 48 16 2.0 6.0 0.00 0.00 0.00 80 1018.0
20200703033604 48 12 2.0 6.0 0.00 0.00 0.00 80 1017.9
20200703033303 48 5 2.0 6.0 0.00 0.00 0.00 80 1018.2
20200703033205 48 6 2.0 6.0 0.00 0.00 0.00 81 1018.0
20200703033104 48 5 3.0 6.0 0.00 0.00 0.00 80 1017.8
20200703033004 48 5 2.0 6.0 0.00 0.00 0.00 81 1018.0
20200703032904 47 7 1.0 6.0 0.00 0.00 0.00 82 1018.2
20200703032804 47 8 1.0 6.0 0.00 0.00 0.00 82 1017.9
20200703032504 47 14 2.0 6.0 0.00 0.00 0.00 82 1018.2
20200703032404 47 16 2.0 6.0 0.00 0.00 0.00 82 1018.1
20200703032304 47 17 1.0 6.0 0.00 0.00 0.00 82 1018.0
20200703032104 47 18 2.0 6.0 0.00 0.00 0.00 83 1017.9
20200703032004 47 21 2.0 6.0 0.00 0.00 0.00 83 1017.9
20200703031904 47 22 3.0 6.0 0.00 0.00 0.00 83 1017.9
20200703031704 47 22 3.0 6.0 0.00 0.00 0.00 83 1018.0
20200703031603 47 20 2.0 6.0 0.00 0.00 0.00 83 1017.9
20200703031304 47 19 1.0 6.0 0.00 0.00 0.00 83 1018.1
20200703031203 47 18 2.0 6.0 0.00 0.00 0.00 83 1018.2
20200703031004 47 17 1.0 4.0 0.00 0.00 0.00 83 1018.0
20200703030904 47 15 2.0 4.0 0.00 0.00 0.00 82 1018.0
20200703030704 47 13 2.0 4.0 0.00 0.00 0.00 82 1018.0
20200703030505 47 12 1.0 4.0 0.00 0.00 0.00 82 1017.9
20200703030404 47 12 2.0 4.0 0.00 0.00 0.00 82 1017.9
20200703030204 47 12 2.0 4.0 0.00 0.00 0.00 82 1018.0
20200703030104 47 13 2.0 4.0 0.00 0.00 0.00 82 1017.9
20200703030007 47 13 2.0 4.0 0.00 0.00 0.00 82 1017.7
20200703025804 48 16 1.0 4.0 0.00 0.00 0.00 82 1017.8
20200703025704 48 15 2.0 4.0 0.00 0.00 0.00 82 1017.8
20200703025603 48 16 2.0 6.0 0.00 0.00 0.00 82 1017.9
20200703025506 48 16 2.0 6.0 0.00 0.00 0.00 82 1018.0
20200703025205 48 17 2.0 6.0 0.00 0.00 0.00 81 1017.8
20200703024804 48 8 2.0 7.0 0.00 0.00 0.00 81 1018.0
20200703024704 48 9 2.0 7.0 0.00 0.00 0.00 81 1017.8
20200703024504 48 12 3.0 7.0 0.00 0.00 0.00 81 1017.9
20200703024404 48 12 2.0 7.0 0.00 0.00 0.00 80 1018.0
20200703024304 48 14 2.0 7.0 0.00 0.00 0.00 80 1017.9
20200703024203 48 16 3.0 7.0 0.00 0.00 0.00 80 1017.7
20200703024104 48 19 4.0 7.0 0.00 0.00 0.00 81 1017.9
20200703023904 48 20 4.0 6.0 0.00 0.00 0.00 80 1017.8
20200703023804 48 23 3.0 6.0 0.00 0.00 0.00 80 1017.6
20200703023504 48 19 2.0 6.0 0.00 0.00 0.00 80 1017.9
20200703023404 48 20 2.0 4.0 0.00 0.00 0.00 80 1017.9
20200703023204 48 17 2.0 4.0 0.00 0.00 0.00 80 1017.9
20200703023004 48 15 2.0 4.0 0.00 0.00 0.00 80 1018.1
20200703022904 48 16 1.0 4.0 0.00 0.00 0.00 80 1018.0
20200703022604 48 21 2.0 4.0 0.00 0.00 0.00 80 1018.1
20200703022504 48 22 2.0 4.0 0.00 0.00 0.00 80 1018.0
20200703022304 48 22 2.0 4.0 0.00 0.00 0.00 80 1018.0
20200703022104 48 19 2.0 4.0 0.00 0.00 0.00 81 1018.0
20200703021804 48 22 2.0 4.0 0.00 0.00 0.00 81 1017.8
20200703021703 48 22 2.0 4.0 0.00 0.00 0.00 81 1017.8
20200703021504 48 22 2.0 4.0 0.00 0.00 0.00 80 1018.0
20200703021404 48 21 2.0 4.0 0.00 0.00 0.00 81 1017.9
20200703021204 48 23 2.0 4.0 0.00 0.00 0.00 81 1018.0
20200703021104 48 25 2.0 4.0 0.00 0.00 0.00 81 1018.0
20200703020704 48 31 2.0 4.0 0.00 0.00 0.00 81 1017.8
20200703020504 48 36 2.0 4.0 0.00 0.00 0.00 82 1017.9
20200703020404 48 36 1.0 4.0 0.00 0.00 0.00 82 1017.9
20200703020304 48 37 0.0 4.0 0.00 0.00 0.00 81 1018.0
20200703015804 48 32 1.0 4.0 0.00 0.00 0.00 81 1017.9
20200703015704 48 30 2.0 4.0 0.00 0.00 0.00 81 1017.7
20200703015604 48 26 1.0 4.0 0.00 0.00 0.00 81 1017.8
20200703015504 48 28 2.0 4.0 0.00 0.00 0.00 80 1017.9
20200703015404 49 28 2.0 4.0 0.00 0.00 0.00 80 1017.8
20200703014904 49 27 1.0 4.0 0.00 0.00 0.00 80 1017.8
20200703014504 49 25 1.0 6.0 0.00 0.00 0.00 79 1017.7
20200703014304 49 21 2.0 6.0 0.00 0.00 0.00 79 1017.9
20200703014104 49 15 2.0 6.0 0.00 0.00 0.00 79 1017.8
20200703014004 49 15 1.0 6.0 0.00 0.00 0.00 79 1017.9
20200703013904 49 14 1.0 6.0 0.00 0.00 0.00 79 1018.0
20200703013804 49 14 2.0 6.0 0.00 0.00 0.00 79 1018.0
20200703013704 49 14 2.0 6.0 0.00 0.00 0.00 79 1017.7
20200703013604 49 15 3.0 6.0 0.00 0.00 0.00 79 1017.8
20200703013404 49 13 1.0 6.0 0.00 0.00 0.00 79 1018.0
20200703013205 49 18 2.0 6.0 0.00 0.00 0.00 79 1018.0
20200703013004 49 18 2.0 6.0 0.00 0.00 0.00 79 1017.8
20200703012804 49 19 2.0 6.0 0.00 0.00 0.00 78 1018.1
20200703012504 49 17 1.0 6.0 0.00 0.00 0.00 78 1017.9
20200703012404 49 18 2.0 6.0 0.00 0.00 0.00 77 1017.9
20200703012304 49 16 4.0 6.0 0.00 0.00 0.00 77 1018.1
20200703012204 49 9 2.0 6.0 0.00 0.00 0.00 77 1018.2
20200703011905 49 9 3.0 6.0 0.00 0.00 0.00 76 1017.9
20200703011404 49 360 3.0 6.0 0.00 0.00 0.00 76 1018.0
20200703011204 49 4 2.0 6.0 0.00 0.00 0.00 77 1018.1
20200703011104 49 1 2.0 7.0 0.00 0.00 0.00 77 1018.1
20200703011005 49 1 1.0 7.0 0.00 0.00 0.00 77 1018.0
20200703010804 49 359 2.0 7.0 0.00 0.00 0.00 77 1018.2
20200703010704 49 358 2.0 7.0 0.00 0.00 0.00 77 1018.1
20200703010604 49 358 2.0 7.0 0.00 0.00 0.00 76 1018.2
20200703010304 49 358 3.0 7.0 0.00 0.00 0.00 76 1018.1
20200703010005 49 3 3.0 7.0 0.00 0.00 0.00 76 1018.0
20200703005804 49 5 3.0 7.0 0.00 0.00 0.00 76 1018.1
20200703005704 49 5 3.0 7.0 0.00 0.00 0.00 77 1018.0
20200703005604 49 9 4.0 7.0 0.00 0.00 0.00 77 1018.0
20200703005505 49 9 2.0 7.0 0.00 0.00 0.00 77 1018.1
20200703005404 49 9 3.0 8.0 0.00 0.00 0.00 77 1017.9
20200703005204 49 7 2.0 8.0 0.00 0.00 0.00 77 1017.8
20200703005005 49 7 2.0 8.0 0.00 0.00 0.00 77 1018.0
20200703004904 49 5 2.0 8.0 0.00 0.00 0.00 76 1018.2
20200703004604 49 6 3.0 8.0 0.00 0.00 0.00 76 1018.1
20200703004104 49 6 2.0 8.0 0.00 0.00 0.00 77 1018.1
20200703004004 49 7 2.0 8.0 0.00 0.00 0.00 77 1018.2
20200703003905 49 9 2.0 8.0 0.00 0.00 0.00 77 1018.2
20200703003704 49 10 2.0 8.0 0.00 0.00 0.00 77 1018.3
20200703003604 49 10 4.0 8.0 0.00 0.00 0.00 77 1018.0
20200703003504 49 11 4.0 6.0 0.00 0.00 0.00 77 1018.1
20200703003404 49 13 4.0 6.0 0.00 0.00 0.00 77 1018.1
20200703003305 49 16 2.0 6.0 0.00 0.00 0.00 77 1018.2
20200703003204 49 16 2.0 6.0 0.00 0.00 0.00 77 1018.0
20200703003004 49 11 2.0 7.0 0.00 0.00 0.00 77 1018.0
20200703002903 49 10 2.0 7.0 0.00 0.00 0.00 77 1018.2
20200703002804 49 11 3.0 7.0 0.00 0.00 0.00 77 1018.2
20200703002704 49 11 2.0 7.0 0.00 0.00 0.00 77 1018.2
20200703002604 49 11 2.0 7.0 0.00 0.00 0.00 77 1018.0
20200703002504 49 10 3.0 7.0 0.00 0.00 0.00 77 1018.2
20200703002305 50 9 2.0 7.0 0.00 0.00 0.00 77 1018.1
20200703002104 50 11 2.0 7.0 0.00 0.00 0.00 77 1018.3
20200703002004 50 14 2.0 4.0 0.00 0.00 0.00 77 1018.1
20200703001904 50 16 3.0 4.0 0.00 0.00 0.00 77 1018.1
20200703001805 50 17 3.0 6.0 0.00 0.00 0.00 78 1018.3
20200703001704 50 16 2.0 7.0 0.00 0.00 0.00 77 1018.2
20200703001504 50 16 2.0 7.0 0.00 0.00 0.00 77 1018.2
20200703001304 49 14 2.0 7.0 0.00 0.00 0.00 77 1018.4
20200703001004 49 14 2.0 7.0 0.00 0.00 0.00 76 1018.3
20200703000804 50 9 4.0 7.0 0.00 0.00 0.00 75 1018.4
20200703000704 50 8 4.0 7.0 0.00 0.00 0.00 75 1018.2
20200703000604 50 4 4.0 6.0 0.00 0.00 0.00 75 1018.5
20200703000504 50 5 4.0 6.0 0.00 0.00 0.00 75 1018.6
20200703000404 50 5 4.0 6.0 0.00 0.00 0.00 75 1018.4
20200703000004 50 357 2.0 6.0 0.00 0.00 0.00 75 1018.5
20200702235804 50 359 4.0 6.0 0.00 0.00 0.00 75 1018.7
20200702235504 50 359 2.0 6.0 0.00 0.00 0.00 76 1018.6
20200702235404 50 359 3.0 6.0 0.00 0.00 0.00 75 1018.6
20200702235304 50 1 2.0 6.0 0.00 0.00 0.00 76 1018.8
20200702235204 50 2 4.0 6.0 0.00 0.00 0.00 76 1018.6
20200702234904 50 4 1.0 4.0 0.00 0.00 0.00 77 1018.6
20200702234804 50 5 2.0 4.0 0.00 0.00 0.00 76 1018.9
20200702234704 50 6 2.0 4.0 0.00 0.00 0.00 76 1018.8
20200702234405 50 8 2.0 6.0 0.00 0.00 0.00 76 1018.6
20200702234304 50 9 2.0 6.0 0.00 0.00 0.00 76 1018.5
20200702234204 50 10 2.0 6.0 0.00 0.00 0.00 76 1018.6
20200702234104 50 10 2.0 6.0 0.00 0.00 0.00 76 1018.6
20200702233804 50 13 2.0 6.0 0.00 0.00 0.00 75 1018.5
20200702233704 50 13 1.0 6.0 0.00 0.00 0.00 75 1018.4
20200702233604 50 13 3.0 6.0 0.00 0.00 0.00 75 1018.3
20200702233404 50 15 3.0 4.0 0.00 0.00 0.00 75 1018.5
20200702233304 50 14 2.0 4.0 0.00 0.00 0.00 75 1018.5
20200702233104 50 17 3.0 4.0 0.00 0.00 0.00 75 1018.6
20200702232904 50 17 1.0 4.0 0.00 0.00 0.00 75 1018.5
20200702232704 50 20 2.0 4.0 0.00 0.00 0.00 75 1018.6
20200702232504 50 22 2.0 4.0 0.00 0.00 0.00 75 1018.6
20200702232404 50 21 2.0 4.0 0.00 0.00 0.00 76 1018.6
20200702232304 50 21 2.0 4.0 0.00 0.00 0.00 76 1018.5
20200702232204 50 19 1.0 4.0 0.00 0.00 0.00 76 1018.5
20200702231904 50 19 1.0 4.0 0.00 0.00 0.00 76 1018.5
20200702231705 50 20 1.0 4.0 0.00 0.00 0.00 77 1018.4
20200702231604 50 18 2.0 4.0 0.00 0.00 0.00 76 1018.7
20200702231204 51 18 2.0 4.0 0.00 0.00 0.00 76 1018.1
20200702231104 51 17 3.0 4.0 0.00 0.00 0.00 76 1018.3
20200702231004 51 17 2.0 4.0 0.00 0.00 0.00 76 1018.5
20200702230904 51 17 2.0 4.0 0.00 0.00 0.00 76 1018.5
20200702230804 51 17 2.0 4.0 0.00 0.00 0.00 76 1018.5
20200702230604 51 19 2.0 4.0 0.00 0.00 0.00 76 1018.4
20200702230504 51 20 2.0 4.0 0.00 0.00 0.00 76 1018.5
20200702230004 51 16 1.0 4.0 0.00 0.00 0.00 75 1018.4
20200702225903 51 18 2.0 4.0 0.00 0.00 0.00 75 1018.4
20200702225704 51 18 1.0 4.0 0.00 0.00 0.00 75 1018.4
20200702225604 51 18 2.0 4.0 0.00 0.00 0.00 75 1018.4
20200702225304 51 22 1.0 4.0 0.00 0.00 0.00 75 1018.3
20200702225105 51 22 1.0 4.0 0.00 0.00 0.00 76 1018.5
20200702224904 51 23 2.0 4.0 0.00 0.00 0.00 76 1018.3
20200702224704 51 21 0.0 4.0 0.00 0.00 0.00 76 1018.3
20200702224204 51 24 2.0 2.0 0.00 0.00 0.00 76 1018.3
20200702224104 51 21 1.0 2.0 0.00 0.00 0.00 76 1018.3
20200702223904 51 21 2.0 2.0 0.00 0.00 0.00 76 1018.5
20200702223805 51 22 2.0 2.0 0.00 0.00 0.00 76 1018.5
20200702223704 51 25 1.0 2.0 0.00 0.00 0.00 76 1018.3
20200702223604 51 28 2.0 2.0 0.00 0.00 0.00 76 1018.5
20200702223405 51 26 1.0 2.0 0.00 0.00 0.00 76 1018.5
20200702223305 51 28 0.0 2.0 0.00 0.00 0.00 76 1018.5
20200702222904 51 32 0.0 2.0 0.00 0.00 0.00 76 1018.4
20200702222604 51 29 1.0 2.0 0.00 0.00 0.00 76 1018.6
20200702222404 51 31 2.0 2.0 0.00 0.00 0.00 76 1018.7
20200702222304 51 31 1.0 2.0 0.00 0.00 0.00 76 1018.4
20200702222204 51 31 1.0 2.0 0.00 0.00 0.00 75 1018.5
20200702222104 51 32 1.0 2.0 0.00 0.00 0.00 75 1018.5
20200702221804 51 30 1.0 2.0 0.00 0.00 0.00 75 1018.4
20200702221704 51 33 0.0 2.0 0.00 0.00 0.00 75 1018.3
20200702221604 51 33 0.0 2.0 0.00 0.00 0.00 75 1018.5
20200702221404 52 30 1.0 2.0 0.00 0.00 0.00 74 1018.5
20200702221304 52 27 1.0 2.0 0.00 0.00 0.00 74 1018.4
20200702221204 52 25 1.0 2.0 0.00 0.00 0.00 74 1018.4
20200702220904 52 24 1.0 2.0 0.00 0.00 0.00 73 1018.8
20200702220504 52 22 0.0 2.0 0.00 0.00 0.00 72 1018.6
20200702220404 52 22 2.0 2.0 0.00 0.00 0.00 72 1018.4
20200702220004 53 22 1.0 2.0 0.00 0.00 0.00 72 1018.3
20200702215804 53 24 1.0 2.0 0.00 0.00 0.00 71 1018.4
20200702215704 53 24 1.0 2.0 0.00 0.00 0.00 71 1018.5
20200702215604 53 24 1.0 2.0 0.00 0.00 0.00 71 1018.5
20200702215304 53 24 1.0 2.0 0.00 0.00 0.00 70 1018.6
20200702215104 53 24 2.0 2.0 0.00 0.00 0.00 70 1018.5
20200702214504 53 26 0.0 2.0 0.00 0.00 0.00 67 1018.5
20200702214403 53 24 1.0 2.0 0.00 0.00 0.00 66 1018.4
20200702214204 53 19 2.0 2.0 0.00 0.00 0.00 65 1018.3
20200702214104 53 16 1.0 2.0 0.00 0.00 0.00 65 1018.3
20200702213903 54 11 2.0 2.0 0.00 0.00 0.00 64 1018.4
20200702213803 54 8 1.0 2.0 0.00 0.00 0.00 63 1018.6
20200702213704 54 7 0.0 2.0 0.00 0.00 0.00 63 1018.3
20200702213604 54 6 2.0 2.0 0.00 0.00 0.00 63 1018.3
20200702213504 54 6 2.0 2.0 0.00 0.00 0.00 63 1018.5
20200702212904 54 13 0.0 4.0 0.00 0.00 0.00 63 1018.2
20200702212804 54 12 0.0 4.0 0.00 0.00 0.00 63 1018.1
20200702212507 54 8 0.0 4.0 0.00 0.00 0.00 62 1018.1
20200702212403 54 8 1.0 4.0 0.00 0.00 0.00 62 1018.2
20200702212304 54 2 1.0 4.0 0.00 0.00 0.00 62 1018.1
20200702212104 54 358 1.0 4.0 0.00 0.00 0.00 62 1018.1
20200702212004 54 357 1.0 4.0 0.00 0.00 0.00 62 1018.1
20200702211905 54 359 2.0 4.0 0.00 0.00 0.00 61 1018.2
20200702211504 55 355 1.0 4.0 0.00 0.00 0.00 61 1018.4
20200702211404 55 352 2.0 4.0 0.00 0.00 0.00 61 1018.2
20200702211004 55 353 1.0 4.0 0.00 0.00 0.00 61 1018.2
20200702210704 55 359 2.0 4.0 0.00 0.00 0.00 60 1018.2
20200702210604 55 2 2.0 4.0 0.00 0.00 0.00 60 1018.3
20200702210404 55 3 2.0 4.0 0.00 0.00 0.00 60 1018.6
20200702210304 55 2 1.0 4.0 0.00 0.00 0.00 60 1018.6
20200702210204 55 360 2.0 7.0 0.00 0.00 0.00 60 1018.1
20200702210105 55 359 1.0 7.0 0.00 0.00 0.00 60 1018.1
20200702210006 55 358 1.0 7.0 0.00 0.00 0.00 60 1018.2
20200702205705 55 351 2.0 7.0 0.00 0.00 0.00 59 1018.5
20200702205604 55 347 2.0 7.0 0.00 0.00 0.00 59 1018.3
20200702205504 55 344 3.0 7.0 0.00 0.00 0.00 59 1018.2
20200702205404 56 342 2.0 7.0 0.00 0.00 0.00 59 1018.1
20200702205304 56 340 3.0 7.0 0.00 0.00 0.00 59 1018.1
20200702205204 56 341 4.0 7.0 0.00 0.00 0.00 59 1018.1
20200702205105 56 340 3.0 7.0 0.00 0.00 0.00 58 1018.0
20200702205004 56 339 1.0 7.0 0.00 0.00 0.00 58 1018.0
20200702204804 56 338 1.0 7.0 0.00 0.00 0.00 58 1018.0
20200702204703 56 337 2.0 7.0 0.00 0.00 0.00 58 1018.1
20200702204604 56 337 4.0 7.0 0.00 0.00 0.00 58 1018.1
20200702204504 56 338 4.0 7.0 0.00 0.00 0.00 58 1017.9
20200702204303 56 341 2.0 4.0 0.00 0.00 0.00 57 1018.2
20200702203805 56 344 2.0 4.0 0.00 0.00 0.00 58 1018.0
20200702203704 56 344 1.0 4.0 0.00 0.00 0.00 57 1018.0
20200702203204 56 341 2.0 7.0 0.00 0.00 0.00 58 1017.8
20200702203104 56 339 2.0 7.0 0.00 0.00 0.00 58 1018.0
20200702202805 56 336 2.0 7.0 0.00 0.00 0.00 57 1018.0
20200702202604 57 336 2.0 7.0 0.00 0.00 0.00 57 1018.2
20200702202403 57 332 2.0 7.0 0.00 0.00 0.00 57 1018.0
20200702202204 57 334 4.0 7.0 0.00 0.00 0.00 57 1018.0
20200702202104 57 333 3.0 7.0 0.00 0.00 0.00 56 1018.1
20200702201904 57 329 3.0 7.0 0.00 0.00 0.00 57 1018.1
20200702201805 57 329 3.0 7.0 0.00 0.00 0.00 56 1018.1
20200702201604 57 324 3.0 8.0 0.00 0.00 0.00 56 1018.3
20200702201504 57 321 3.0 8.0 0.00 0.00 0.00 56 1018.2
20200702201404 57 322 2.0 8.0 0.00 0.00 0.00 57 1018.2
20200702201304 57 324 2.0 8.0 0.00 0.00 0.00 57 1017.9
20200702201104 57 323 3.0 8.0 0.00 0.00 0.00 57 1018.2
20200702200805 57 322 2.0 8.0 0.00 0.00 0.00 56 1017.9
20200702200704 57 323 2.0 8.0 0.00 0.00 0.00 57 1017.8
20200702200604 57 322 3.0 8.0 0.00 0.00 0.00 57 1018.0
20200702200405 57 317 2.0 8.0 0.00 0.00 0.00 56 1018.1
20200702200204 57 311 4.0 8.0 0.00 0.00 0.00 56 1018.1
20200702200104 57 314 2.0 4.0 0.00 0.00 0.00 57 1017.9
20200702195705 58 329 2.0 4.0 0.00 0.00 0.00 56 1017.9
20200702195504 57 344 2.0 6.0 0.00 0.00 0.00 57 1018.1
20200702195404 57 348 1.0 6.0 0.00 0.00 0.00 57 1017.9
20200702195104 56 347 2.0 6.0 0.00 0.00 0.00 58 1017.9
20200702195004 56 345 3.0 6.0 0.00 0.00 0.00 58 1018.0
20200702194804 57 340 2.0 6.0 0.00 0.00 0.00 57 1018.0
20200702194604 57 325 3.0 6.0 0.00 0.00 0.00 57 1017.9
20200702194405 57 318 2.0 6.0 0.00 0.00 0.00 57 1018.1
20200702194305 57 311 2.0 6.0 0.00 0.00 0.00 57 1018.0
20200702193904 58 300 2.0 7.0 0.00 0.00 0.00 56 1017.8
20200702193804 57 304 2.0 7.0 0.00 0.00 0.00 56 1017.9
20200702193504 57 318 2.0 8.0 0.00 0.00 0.00 57 1018.2
20200702193304 57 325 2.0 8.0 0.00 0.00 0.00 57 1017.9
20200702193204 57 327 2.0 8.0 0.00 0.00 0.00 57 1018.1
20200702192904 56 333 4.0 8.0 0.00 0.00 0.00 58 1018.2
20200702192804 56 330 3.0 8.0 0.00 0.00 0.00 58 1018.3
20200702192704 57 330 4.0 8.0 0.00 0.00 0.00 58 1018.1
20200702192604 56 330 3.0 8.0 0.00 0.00 0.00 58 1018.1
20200702192504 57 330 2.0 8.0 0.00 0.00 0.00 58 1018.3
20200702192404 56 331 1.0 8.0 0.00 0.00 0.00 58 1018.2
20200702192204 56 327 4.0 8.0 0.00 0.00 0.00 58 1018.2
20200702192104 56 328 5.0 8.0 0.00 0.00 0.00 58 1018.3
20200702191904 57 325 2.0 7.0 0.00 0.00 0.00 57 1018.1
20200702191803 57 325 3.0 7.0 0.00 0.00 0.00 58 1018.2
20200702191705 57 322 2.0 7.0 0.00 0.00 0.00 58 1018.2
20200702191604 56 319 2.0 7.0 0.00 0.00 0.00 58 1018.1
20200702191504 56 314 2.0 7.0 0.00 0.00 0.00 58 1018.3
20200702191304 56 302 3.0 7.0 0.00 0.00 0.00 58 1018.3
20200702191204 57 300 4.0 7.0 0.00 0.00 0.00 57 1018.4
20200702191104 57 287 4.0 7.0 0.00 0.00 0.00 57 1018.4
20200702191004 59 278 0.0 2.0 0.00 0.00 0.00 54 1018.2
20200702190904 58 280 1.0 4.0 0.00 0.00 0.00 54 1018.3